DW4915 Mazarete ES current weather conditions

sailwx.info

Wind from 331

Air temperature 10.0° C
Dewpoint -0.2° C

Last reported at 2016-May-30 19:56 UTC.
Time now 2016-May-30 20:21 UTC

Location: N 40°58' W 002°11'.
View on Google Maps.

See reports from other nearby stations

  
Tides and Currents Weather Stations Pressure Air Temp Water Temp Dewpoint Dewpoint Depression Visibility Wind Speed Wind Dir Waves Ship Positions
date/time (UTC)wind fromknots sea level pressurealtimeterstation pressurevisibilityair tempwater tempwave heightnotes
2016-May-30 19:56 331 10.0
2016-May-30 19:46 330 10.0
2016-May-30 19:41 330 10.0
2016-May-30 19:36 330 10.6
2016-May-30 19:26 331 11.7
2016-May-30 19:21 330 11.7
2016-May-30 19:11 331 12.2
2016-May-30 19:06 331 12.8
2016-May-30 19:01 330 12.8
2016-May-30 18:51 333 13.3
2016-May-30 18:46 331 13.3
2016-May-30 18:41 333 13.3
2016-May-30 18:36 326 13.3
2016-May-30 18:26 324 13.3
2016-May-30 18:21 327 13.3
2016-May-30 18:11 339 13.3
2016-May-30 18:06 331 13.3
2016-May-30 18:01 331 13.9
2016-May-30 17:56 337 14.4
2016-May-30 17:46 346 15.0
2016-May-30 17:41 338 15.0
2016-May-30 17:36 321 15.0
2016-May-30 17:26 312 15.0
2016-May-30 17:21 321 15.0
2016-May-30 17:11 344 15.6
2016-May-30 17:06 323 15.6
2016-May-30 17:01 320 15.0
2016-May-30 16:56 330 14.4
2016-May-30 16:46 308 13.9
2016-May-30 16:41 317 14.4
2016-May-30 16:36 325 15.0
2016-May-30 16:26 295 15.0
2016-May-30 16:21 321 15.6
2016-May-30 16:11 285 15.6
2016-May-30 16:06 285 15.6
2016-May-30 16:01 292 15.6
2016-May-30 15:56 275 16.1
2016-May-30 15:46 302 14.4
2016-May-30 15:41 310 14.4
2016-May-30 15:36 333 14.4
2016-May-30 15:26 280 15.6
2016-May-30 15:21 330 15.6
2016-May-30 15:16 309 15.0
2016-May-30 15:06 323 15.0
2016-May-30 15:01 308 14.4
2016-May-30 14:56 314 15.0
2016-May-30 14:46 289 14.4
2016-May-30 14:41 287 14.4
2016-May-30 14:31 287 15.0
2016-May-30 14:26 275 15.6
2016-May-30 14:21 319 15.0
2016-May-30 14:11 323 14.4
2016-May-30 14:06 329 15.0
2016-May-30 13:56 278 15.0
2016-May-30 13:51 316 14.4
2016-May-30 13:46 315 14.4
2016-May-30 13:36 328 14.4
2016-May-30 13:31 287 14.4
2016-May-30 13:26 317 13.9
2016-May-30 13:16 296 13.3
2016-May-30 13:11 281 13.3
2016-May-30 13:06 274 13.3
2016-May-30 12:56 258 13.9
2016-May-30 12:51 281 13.9
2016-May-30 12:46 290 13.3
2016-May-30 12:36 279 13.3
2016-May-30 12:31 307 13.3
2016-May-30 12:21 304 13.9
2016-May-30 12:16 285 13.9
2016-May-30 12:11 279 13.3
2016-May-30 12:01 306 13.9
2016-May-30 11:56 319 13.9
2016-May-30 11:51 305 15.0
2016-May-30 11:41 316 13.9
2016-May-30 11:36 322 13.3
2016-May-30 11:31 307 13.3
2016-May-30 11:26 317 13.3
2016-May-30 11:16 348 12.2
2016-May-30 11:11 345 11.7
2016-May-30 11:06 350 11.7
2016-May-30 10:56 306 13.9
2016-May-30 10:51 286 13.3
2016-May-30 10:46 316 12.8
2016-May-30 10:41 339 12.8
2016-May-30 10:31 343 13.3
2016-May-30 10:26 342 12.8
2016-May-30 10:16 310 12.2
2016-May-30 10:11 336 12.2
2016-May-30 10:06 327 12.2
2016-May-30 10:01 329 12.2
2016-May-30 09:51 330 12.2
2016-May-30 09:46 350 12.2
2016-May-30 09:41 319 12.2
2016-May-30 09:31 325 11.1
2016-May-30 09:26 325 11.1
2016-May-30 09:16 294 11.1
2016-May-30 09:11 319 10.6
2016-May-30 09:06 335 10.6
2016-May-30 09:01 320 10.6
2016-May-30 08:51 315 10.0
2016-May-30 08:46 317 10.0
2016-May-30 08:41 316 10.0
2016-May-30 08:31 308 9.4
2016-May-30 08:26 326 9.4
2016-May-30 08:16 317 9.4
2016-May-30 08:11 316 8.9
2016-May-30 08:06 320 8.9
2016-May-30 08:01 317 8.9
2016-May-30 07:51 325 8.9
2016-May-30 07:46 326 8.9
2016-May-30 07:41 313 8.3
2016-May-30 07:31 327 8.3
2016-May-30 07:26 327 8.3
2016-May-30 07:16 322 8.3
2016-May-30 07:11 319 8.3
2016-May-30 07:06 314 8.3
2016-May-30 07:01 315 8.3
2016-May-30 06:51 319 8.3
2016-May-30 06:46 327 7.8
2016-May-30 06:41 315 7.8
2016-May-30 06:31 312 7.8
2016-May-30 06:26 320 7.8
2016-May-30 06:21 326 7.8
2016-May-30 06:11 337 7.8
2016-May-30 06:06 337 7.8
2016-May-30 05:56 337 7.8
2016-May-30 05:51 348 7.8
2016-May-30 05:46 348 7.8
2016-May-30 05:41 347 7.8
2016-May-30 05:31 348 7.2
2016-May-30 05:26 348 7.2
2016-May-30 05:16 348 7.2
2016-May-30 05:11 348 7.2
2016-May-30 05:06 348 7.2
2016-May-30 04:56 348 7.2
2016-May-30 04:51 348 7.2
2016-May-30 04:46 348 7.2
2016-May-30 04:36 348 7.2
2016-May-30 04:31 348 7.2
2016-May-30 04:26 348 7.2
2016-May-30 04:16 348 7.2
2016-May-30 04:11 348 7.2
2016-May-30 04:01 348 7.2
2016-May-30 03:56 348 7.8
2016-May-30 03:51 348 7.2
2016-May-30 03:46 348 7.2
2016-May-30 03:36 349 7.2
2016-May-30 03:31 348 7.2
2016-May-30 03:26 348 7.2
2016-May-30 03:16 348 7.2
2016-May-30 03:11 348 7.8
2016-May-30 03:06 348 7.2
2016-May-30 02:56 348 7.2
2016-May-30 02:51 348 7.2
2016-May-30 02:46 349 7.2
2016-May-30 02:36 348 6.7
2016-May-30 02:31 348 6.7
2016-May-30 02:26 348 6.7
2016-May-30 02:21 348 6.7
2016-May-30 02:11 348 6.1
2016-May-30 02:06 349 6.1
2016-May-30 02:01 349 6.1
2016-May-30 01:51 349 6.1
2016-May-30 01:46 348 6.1
2016-May-30 01:36 348 6.1
2016-May-30 01:31 348 6.1
2016-May-30 01:26 348 6.1
2016-May-30 01:16 348 6.1
2016-May-30 01:11 348 6.1
2016-May-30 01:06 349 6.1
2016-May-30 00:56 348 6.7
2016-May-30 00:51 348 6.7
2016-May-30 00:46 348 6.7
2016-May-30 00:36 348 7.2
2016-May-30 00:31 348 7.8
2016-May-30 00:26 348 7.8
2016-May-30 00:16 348 7.8
2016-May-30 00:11 347 7.8
2016-May-30 00:06 348 7.8
2016-May-29 23:56 348 7.8
2016-May-29 23:51 348 7.8
2016-May-29 23:46 348 7.8
2016-May-29 23:36 348 7.8
2016-May-29 23:31 348 7.8
2016-May-29 23:21 348 7.8
2016-May-29 23:16 348 7.8
2016-May-29 23:11 348 7.2
2016-May-29 23:01 348 7.2
2016-May-29 22:56 348 7.2
2016-May-29 22:51 348 7.2
2016-May-29 22:46 348 7.2
2016-May-29 22:36 348 7.2
2016-May-29 22:31 348 7.2
2016-May-29 22:21 348 7.2
2016-May-29 22:16 347 7.2
2016-May-29 22:11 348 7.2
2016-May-29 22:01 349 7.8
2016-May-29 21:56 347 7.8
2016-May-29 21:51 348 8.3
2016-May-29 21:46 347 8.3
2016-May-29 21:36 348 8.9
2016-May-29 21:31 348 8.9
2016-May-29 21:21 348 8.9
2016-May-29 21:16 348 9.4
2016-May-29 21:11 348 9.4
2016-May-29 21:01 348 9.4
2016-May-29 20:56 347 9.4
2016-May-29 20:51 348 9.4
2016-May-29 20:46 348 9.4
2016-May-29 20:36 350 8.9
2016-May-29 20:31 348 8.9
2016-May-29 20:21 348 8.9
2016-May-29 20:16 348 8.9
2016-May-29 20:06 348 8.9
2016-May-29 20:01 348 8.9
2016-May-29 19:56 348 8.9
2016-May-29 19:51 348 8.9
2016-May-29 19:41 348 8.9
2016-May-29 19:36 348 8.9
2016-May-29 19:31 347 8.9
2016-May-29 19:21 348 8.9
2016-May-29 19:16 348 9.4
2016-May-29 19:06 348 9.4
2016-May-29 19:01 348 9.4
2016-May-29 18:56 348 8.9
2016-May-29 18:51 348 8.9
2016-May-29 18:41 348 8.3
2016-May-29 18:36 348 8.3
2016-May-29 18:31 344 8.3
2016-May-29 18:26 350 8.3
2016-May-29 18:11 285 9.4
2016-May-29 18:01 021 9.4
2016-May-29 17:51 014 9.4
2016-May-29 17:36 351 9.4
2016-May-29 17:31 346 10.0
2016-May-29 17:26 343 10.0
2016-May-29 17:16 009 9.4
2016-May-29 17:11 356 9.4
2016-May-29 17:01 345 10.0
2016-May-29 16:56 359 10.6
2016-May-29 16:51 303 11.1
2016-May-29 16:41 233 13.3
2016-May-29 16:36 231 13.3
2016-May-29 16:31 232 13.3
2016-May-29 16:26 205 13.3
2016-May-29 16:16 231 13.3
2016-May-29 16:11 221 13.9
2016-May-29 16:06 243 13.9
2016-May-29 16:01 240 13.9
2016-May-29 15:56 264 14.4
2016-May-29 15:51 275 14.4
2016-May-29 15:41 265 13.9
2016-May-29 15:36 265 13.9
2016-May-29 15:31 258 13.9
2016-May-29 15:26 260 14.4
2016-May-29 15:21 221 13.3
2016-May-29 15:16 253 12.8
2016-May-29 15:11 244 12.8
2016-May-29 15:01 275 12.8
2016-May-29 14:56 260 12.8
2016-May-29 14:46 242 13.3
2016-May-29 14:41 271 13.9
2016-May-29 14:36 296 14.4
2016-May-29 14:26 277 15.6
2016-May-29 14:21 284 15.6
2016-May-29 14:16 244 16.1
2016-May-29 14:06 307 15.6
2016-May-29 14:01 310 15.0
2016-May-29 13:56 289 15.6
2016-May-29 13:46 284 14.4
2016-May-29 13:41 286 13.9
2016-May-29 13:36 284 14.4
2016-May-29 13:26 327 13.9
2016-May-29 13:21 320 14.4
2016-May-29 13:16 308 13.9
2016-May-29 13:06 277 14.4
2016-May-29 13:01 283 14.4
2016-May-29 12:56 281 14.4
2016-May-29 12:46 277 13.9
2016-May-29 12:41 310 13.9
2016-May-29 12:36 295 13.9
2016-May-29 12:26 290 13.9
2016-May-29 12:21 283 13.9
2016-May-29 12:16 285 13.9
2016-May-29 12:06 321 13.3
2016-May-29 12:01 295 13.3
2016-May-29 11:56 290 13.3
2016-May-29 11:51 311 13.9
2016-May-29 11:46 286 12.8
2016-May-29 11:36 281 12.8
2016-May-29 11:31 306 12.8
2016-May-29 11:26 233 12.2
2016-May-29 11:16 266 11.7
2016-May-29 11:11 296 11.7
2016-May-29 11:06 290 11.7
2016-May-29 10:56 275 11.7
2016-May-29 10:51 283 11.7
2016-May-29 10:46 288 11.7
2016-May-29 10:41 282 11.7
2016-May-29 10:31 285 11.7
2016-May-29 10:26 289 11.7
2016-May-29 10:16 292 11.7
2016-May-29 10:11 277 11.7
2016-May-29 10:06 256 11.7
2016-May-29 09:56 263 11.7
2016-May-29 09:51 267 11.7
2016-May-29 09:46 290 11.1
2016-May-29 09:41 281 11.7
2016-May-29 09:36 256 12.2
2016-May-29 09:26 287 11.7
2016-May-29 09:21 279 11.1
2016-May-29 09:11 279 11.1
2016-May-29 09:06 292 11.7
2016-May-29 09:01 277 11.1
2016-May-29 08:56 275 11.1
2016-May-29 08:46 316 11.7
2016-May-29 08:41 271 11.7
2016-May-29 08:36 270 11.7
2016-May-29 08:26 246 10.6
2016-May-29 08:16 310 10.6
2016-May-29 08:11 290 10.6
2016-May-29 08:06 261 10.6
2016-May-29 07:56 246 10.0
2016-May-29 07:51 277 10.0
2016-May-29 07:46 303 10.0
2016-May-29 07:41 275 10.0
2016-May-29 07:31 259 10.0
2016-May-29 07:26 283 10.0
2016-May-29 07:16 272 10.0
2016-May-29 07:11 269 9.4
2016-May-29 07:06 262 9.4
2016-May-29 07:01 258 8.9
2016-May-29 06:51 271 8.9
2016-May-29 06:46 246 8.3
2016-May-29 06:41 240 8.3
2016-May-29 06:31 248 8.3
2016-May-29 06:26 256 8.3
2016-May-29 06:21 251 8.3
2016-May-29 06:11 257 8.3
2016-May-29 06:06 257 8.3
2016-May-29 06:01 257 8.3
2016-May-29 05:56 257 8.3
2016-May-29 05:51 256 7.8
2016-May-29 05:41 257 7.8
2016-May-29 05:36 257 7.8
2016-May-29 05:31 257 7.8
2016-May-29 05:21 256 7.8
2016-May-29 05:16 257 7.8
2016-May-29 05:11 257 7.8
2016-May-29 05:06 258 7.8
2016-May-29 04:56 251 7.8
2016-May-29 04:51 251 7.8
2016-May-29 04:46 251 7.8
2016-May-29 04:36 249 7.8
2016-May-29 04:31 251 7.8
2016-May-29 04:26 250 7.8
2016-May-29 04:16 248 7.8
2016-May-29 04:11 246 7.8
2016-May-29 04:06 251 7.8
2016-May-29 03:56 257 7.8
2016-May-29 03:51 259 7.8
2016-May-29 03:46 259 7.8
2016-May-29 03:36 259 7.8
2016-May-29 03:31 258 7.8
2016-May-29 03:26 254 7.8
2016-May-29 03:21 254 7.8
2016-May-29 03:16 252 7.8
2016-May-29 03:11 255 7.8
2016-May-29 03:01 258 7.8
2016-May-29 02:56 258 7.8
2016-May-29 02:46 256 7.8
2016-May-29 02:41 256 7.8
2016-May-29 02:36 256 7.8
2016-May-29 02:31 256 7.8
2016-May-29 02:26 256 7.8
2016-May-29 02:21 256 7.8
2016-May-29 02:11 257 7.8
2016-May-29 02:06 256 8.3
2016-May-29 01:56 250 8.3
2016-May-29 01:51 250 8.3
2016-May-29 01:46 250 7.8
2016-May-29 01:41 250 7.8
2016-May-29 01:31 250 7.8
2016-May-29 01:26 248 8.3
2016-May-29 01:21 249 8.3
2016-May-29 01:16 250 8.3
2016-May-29 01:11 261 8.3
2016-May-29 01:06 259 8.3
2016-May-29 01:01 260 8.3
2016-May-29 00:56 256 8.3
2016-May-29 00:51 256 8.3
2016-May-29 00:41 265 8.3
2016-May-29 00:36 248 8.3
2016-May-29 00:31 248 8.3
2016-May-29 00:21 234 8.3
2016-May-29 00:16 254 8.3
2016-May-29 00:11 252 8.3
2016-May-29 00:06 251 8.3
2016-May-28 23:56 245 8.3
2016-May-28 23:51 249 8.3
2016-May-28 23:46 246 8.3
2016-May-28 23:41 235 8.3
2016-May-28 23:36 254 8.3
2016-May-28 23:31 238 8.3
2016-May-28 23:26 261 8.3
2016-May-28 23:21 262 8.3
2016-May-28 23:16 248 8.3
2016-May-28 23:06 227 8.3
2016-May-28 23:01 260 8.3
2016-May-28 22:56 245 8.3
2016-May-28 22:51 261 8.3
2016-May-28 22:41 246 8.9
2016-May-28 22:36 271 8.9
2016-May-28 22:31 242 8.9
2016-May-28 22:26 256 8.9
2016-May-28 22:16 206 8.9
2016-May-28 22:11 248 8.9
2016-May-28 22:06 252 8.9
2016-May-28 21:56 262 9.4
2016-May-28 21:51 256 8.9
2016-May-28 21:46 249 9.4
2016-May-28 21:41 248 9.4
2016-May-28 21:31 279 9.4
2016-May-28 21:26 247 9.4
2016-May-28 21:16 238 9.4
2016-May-28 21:11 241 9.4
2016-May-28 21:06 236 9.4
2016-May-28 21:01 246 9.4
2016-May-28 20:51 236 9.4
2016-May-28 20:46 230 9.4
2016-May-28 20:41 250 10.0
2016-May-28 20:31 236 10.0
2016-May-28 20:26 221 10.0
2016-May-28 20:16 243 10.0
2016-May-28 20:11 260 10.0
2016-May-28 20:06 235 10.0
2016-May-28 20:01 238 10.0